Regional Weather Roundup
Issued by NWS

Home | Current Version | Previous Version | Text Only | Print | Product List | Glossary Off
Versions: 1 2 3 4 5 6 7 8 9 10 11 12 13 14 15 16 17 18 19 20 21 22 23 24 25 26 27 28 29 30 31 32 33 34 35 36 37 38 39 40 41 42 43 44 45 46 47 48 49 50

000
ASUS43 KBIS 300820
RWRND

NORTH DAKOTA REGIONAL WEATHER ROUNDUP
NATIONAL WEATHER SERVICE BISMARCK ND
300 AM CDT MON MAR 30 2015

NOTE: "FAIR" INDICATES FEW OR NO CLOUDS BELOW 12,000 FEET WITH NO
SIGNIFICANT WEATHER AND/OR OBSTRUCTIONS TO VISIBILITY.


NDZ001>003-009>011-017-300900-
NORTHWEST NORTH DAKOTA

CITY           SKY/WX    TMP DP  RH WIND       PRES   REMARKS
WILLISTON      CLOUDY    44  34  67 SW8       29.83F
MINOT          MOCLDY    37  30  75 SE6       29.83F
MINOT AFB      MOCLDY    35  35  99 S9        29.81F
$$

NDZ018>021-031>035-040>046-300900-
SOUTHWEST NORTH DAKOTA

CITY           SKY/WX    TMP DP  RH WIND       PRES   REMARKS
BISMARCK       PTCLDY    36  30  79 CALM      29.92S
DICKINSON      PTCLDY    39  28  64 SW6       29.89F
GARRISON         N/A     39  30  70 SW6       29.86F
HETTINGER ARPT CLEAR     36  27  69 CALM      29.96F
$$

NDZ004>008-012>016-024-026-027-054-300900-
NORTHEAST NORTH DAKOTA

CITY           SKY/WX    TMP DP  RH WIND       PRES   REMARKS
GRAND FORKS    CLEAR     32  27  81 W8        29.89S
GRND FRKS AFB  CLEAR     29  26  88 W5        29.88F
DEVILS LAKE    CLOUDY    37  30  75 SW6       29.88S
$$

NDZ022-023-025-028>030-036>039-047>053-300900-
SOUTHEAST NORTH DAKOTA

CITY           SKY/WX    TMP DP  RH WIND       PRES   REMARKS
FARGO          CLEAR     33  26  75 SW7       29.92S
JAMESTOWN      MOCLDY    31  28  89 SW5       29.91S
$$



USA.gov is the U.S. government's official web portal to all federal, state and local government web resources and services.